STARLINK-35349

Last updated on Mon Oct 20 2025 00:02:07 GMT+0000 (Coordinated Universal Time)

1 65835U 25221N 25292.25002315 -.01557469 00000+0 -28614-1 0 9997 2 65835 53.1603 27.8237 0001088 83.5438 256.6811 15.51583525 4434
UTC large
Height (km)
Speed (km/s)
/
Latitude / Longitude
Inclination (degrees)
Orbital Period (minutes)
Azimuth
Elevation
Range (km)
Doppler Factor

Next 0 passes for location: London (51.5072 / 0.1276)

Sorry there are no passes over London.